This demonstration page uses our WeatherBlox Daily Observations layout. Learn more.

41.55636, -103.73856

Hourly Observations for June 24, 2017

Temp ( °F °C ) Dew Point ( °F °C ) Humidity (%) Winds ( mph kmh ) Pressure ( in mb ) Visibility ( mi km ) Precip ( " mm )
12:53 am 00:53 Mostly Cloudy 55 12.8 36 2.2 49 49 Calm 30.21 1023 10 16.0934 0 0
1:53 am 01:53 Cloudy 55 12.8 37 2.8 51 51 Calm 30.21 1023 10 16.0934 0 0
2:53 am 02:53 Cloudy 57 13.9 35 1.7 44 44 Calm 30.2 1023 10 16.0934 0 0
3:53 am 03:53 Mostly Cloudy 53 11.7 39 3.9 59 59 E 3 6 30.19 1022 10 16.0934 0 0
4:53 am 04:53 Cloudy 53 11.7 42 5.6 66 66 SSW 3 6 30.19 1023 10 16.0934 0 0
5:53 am 05:53 Cloudy 55 12.8 39 3.9 55 55 Calm 30.2 1023 10 16.0934 0 0
6:53 am 06:53 Cloudy 57 13.9 41 5 55 55 Calm 30.2 1023 10 16.0934 0 0
7:53 am 07:53 Cloudy 60 15.6 39 3.9 46 46 undefined N/A 30.21 1023 10 16.0934 0 0
8:53 am 08:53 Cloudy 62 16.7 37 2.8 40 40 Calm 30.23 1024 10 16.0934 0 0
9:53 am 09:53 Cloudy 63 17.2 38 3.3 40 40 undefined N/A 30.24 1024 10 16.0934 0 0
10:53 am 10:53 Cloudy 65 18.3 38 3.3 37 37 undefined N/A 30.24 1024 10 16.0934 0 0
11:53 am 11:53 Mostly Cloudy 69 20.6 34 1.1 27 27 VRB 5 7 30.23 1024 10 16.0934 0 0
12:53 pm 12:53 Cloudy 70 21.1 35 1.7 28 28 VRB 5 7 30.22 1023 10 16.0934 0 0
1:53 pm 13:53 Sunny 74 23.3 35 1.7 24 24 NW 8 13 30.19 1022 10 16.0934 0 0
2:53 pm 14:53 Partly Cloudy 76 24.4 35 1.7 23 23 undefined N/A 30.17 1022 10 16.0934 0 0
3:53 pm 15:53 Mostly Cloudy 76 24.4 35 1.7 23 23 Calm 30.16 1021 10 16.0934 0 0
4:53 pm 16:53 Partly Cloudy 75 23.9 35 1.7 23 23 N 3 6 30.16 1022 10 16.0934 0 0
5:53 pm 17:53 Mostly Cloudy 74 23.3 36 2.2 25 25 NE 7 11 30.15 1021 10 16.0934 0 0
6:53 pm 18:53 Sunny 70 21.1 38 3.3 31 31 ENE 12 19 30.17 1022 10 16.0934 0 0
7:53 pm 19:53 Sunny 67 19.4 39 3.9 36 36 E 7 11 30.18 1022 10 16.0934 0 0
8:53 pm 20:53 Clear 62 16.7 40 4.4 44 44 ENE 7 11 30.2 1023 10 16.0934 0 0
9:53 pm 21:53 Clear 58 14.4 40 4.4 51 51 undefined N/A 30.24 1024 10 16.0934 0 0
10:53 pm 22:53 Clear 57 13.9 41 5 55 55 ENE 6 9 30.25 1024 10 16.0934 0 0
11:53 pm 23:53 Mostly Clear 57 13.9 41 5 55 55 undefined N/A 30.25 1024 10 16.0934 0 0

Powered by AerisWeather